Regional Weather Roundup
Issued by NWS

Home | Current Version | Previous Version | Text Only | Print | Product List | Glossary On
Versions: 1 2 3 4 5 6 7 8 9 10 11 12 13 14 15 16 17 18 19 20 21 22 23 24 25 26 27 28 29 30 31 32 33 34 35 36 37 38 39 40 41 42 43 44 45 46 47 48 49 50
000
ASUS43 KMPX 200910
RWRMN
WEATHER ROUNDUP FOR MINNESOTA
NATIONAL WEATHER SERVICE TWIN CITIES/CHANHASSEN MN
400 AM CDT FRI APR 20 2018


NOTE: "FAIR" INDICATES FEW OR NO CLOUDS BELOW 12,000 FEET WITH NO
SIGNIFICANT WEATHER AND/OR OBSTRUCTIONS TO VISIBILITY. N/A MEANS
CURRENT SKY AND/OR WEATHER CONDITIONS ARE NOT AVAILABLE.

MNZ060>063-068>070-201000-
   Twin Cities Metro

CITY           SKY/WX    TMP DP  RH WIND       PRES   REMARKS
TWIN CITIES    FAIR      33  26  75 S3        30.48S
ST PAUL        FAIR      29  24  82 CALM      30.49R
CRYSTAL        FAIR      27  21  78 CALM      30.46S
BLAINE         FAIR      28  25  86 CALM      30.47R
LAKEVILLE      FAIR      25  23  93 CALM      30.48R
EDEN PRAIRIE   FAIR      30  24  78 SW5       30.47R WCI  25
SOUTH ST PAUL  FAIR      29  23  76 CALM      30.48S
LAKE ELMO      FAIR      27  23  86 CALM      30.48S
$$
MNZ001>005-007-008-013>017-022>024-027-028-201000-
   Northwest Minnesota

CITY           SKY/WX    TMP DP  RH WIND       PRES   REMARKS
BEMIDJI        FAIR      26  20  78 CALM      30.40S
HALLOCK        FAIR      34  30  86 S5        30.37S WCI  30
ROSEAU         FAIR      34  28  80 CALM      30.38S
WARROAD        FAIR      28  27  93 CALM      30.39S
THIEF RVR FALL FAIR      35  30  82 CALM      30.40S
CROOKSTON      FAIR      36  30  80 SE5       30.40S
FOSSTON        FAIR      34  25  69 S6        30.40S WCI  29
DETROIT LAKES  FAIR      34  32  93 CALM      30.42R
MOORHEAD       FAIR      36  30  80 S8        30.42R
PARK RAPIDS    FAIR      33  27  78 S3        30.40F
MAHNOMEN       FAIR      34  31  86 S8        30.40R WCI  28
$$
MNZ006-009>011-018-025>026-201000-
   North Central Minnesota

CITY           SKY/WX    TMP DP  RH WIND       PRES   REMARKS
BAUDETTE       FAIR      29  25  85 CALM      30.38S
FLAG ISLAND    FAIR      36  25  64 CALM      30.37S
INTL FALLS     FAIR      23  20  88 CALM      30.39R
WASKISH        FAIR      25  23  93 CALM      30.40R
BIG FORK       FAIR      25  19  80 CALM      30.40R
LONGVILLE      FAIR      28  23  80 CALM      30.41S
GRAND RAPIDS   FAIR      35  23  61 W3        30.43R
CRANE LAKE     FAIR      18  18 100 CALM      30.42S
ORR            FAIR      21  18  86 CALM      30.37R
COOK           FAIR      23  19  86 CALM      30.40R
WALKER         FAIR      32  25  75 CALM      30.40F
$$
MNZ012-019>021-037-201000-
   Northeast Minnesota

CITY           SKY/WX    TMP DP  RH WIND       PRES   REMARKS
DULUTH         FAIR      34  18  52 W7        30.41R WCI  28
ELY            FAIR      21  18  86 CALM      30.39S
HIBBING        FAIR      21  18  88 CALM      30.40R
EVELETH        FAIR      22  20  91 CALM      30.41R
DULUTH HARBOR  FAIR      36  21  55 S8        30.43R
TWO HARBORS    FAIR      39  19  45 NW6       30.39R
SILVER BAY     FAIR      25  21  86 CALM      30.39S
GRAND MARAIS     N/A     34  19  54 CALM      30.39R
G MARAIS ARPRT FAIR      21  14  73 NW5       30.39R WCI  15
$$
MNZ029>031-032-039>041-046>048-054>057-064-201000-
   West Central Minnesota

CITY           SKY/WX    TMP DP  RH WIND       PRES   REMARKS
FERGUS FALLS   FAIR      34  28  80 SE5       30.42R WCI  30
WHEATON        MOCLDY    32  28  86 SE3       30.44S
MORRIS         CLOUDY    32  30  93 SE5       30.43R WCI  27
ALEXANDRIA     FAIR      33  25  72 CALM      30.44S
ELBOW LAKE     FAIR      32  28  88 CALM      30.44R
WADENA         FAIR      32  25  74 SW3       30.42S
GLENWOOD       FAIR      30  27  86 S6        30.45R WCI  24
APPLETON       CLOUDY    30  27  86 SE3       30.44S
BENSON         PTCLDY    27  27 100 CALM      30.46S
ORTONVILLE     CLOUDY    30  27  86 SE6       30.43S WCI  24
MADISON        PTCLDY    30  27  86 S5        30.43S WCI  25
WILLMAR        FAIR      28  27  93 CALM      30.48S
$$
MNZ033>034-036-042>043-049>051-058-059-201000-
   Central Minnesota

CITY           SKY/WX    TMP DP  RH WIND       PRES   REMARKS
ST CLOUD       FAIR      27  26  96 CALM      30.46R
SAUK CENTRE    FAIR      30  25  80 CALM      30.45S
PAYNESVILLE    FAIR      29  27  89 W3        30.46S
AITKIN         FAIR      25  21  86 CALM      30.42S
PINE RIVER     FAIR      25  21  86 CALM      30.45S
BRAINERD       FAIR      27  20  75 S5        30.44S WCI  22
STAPLES        FAIR      30  21  69 CALM      30.43S
LONG PRAIRIE   FAIR      30  25  80 S3        30.44S
LITTLE FALLS   FAIR      28  21  74 CALM      30.45S
LITCHFIELD     FAIR      32  27  80 CALM      30.46S
BUFFALO        FAIR      27  24  87 CALM      30.48R
MAPLE LAKE     FAIR      28  25  86 CALM      30.47S
HUTCHINSON     FAIR      27  25  93 CALM      30.48S
$$
MNZ037-044-045-052-053-201000-
   East Central Minnesota

CITY           SKY/WX    TMP DP  RH WIND       PRES   REMARKS
PRINCETON      FAIR      27  23  86 CALM      30.46S
MORA           FAIR      27  25  93 CALM      30.47R
CAMBRIDGE      FAIR      28  21  74 CALM      30.47R
RUSH CITY      FAIR      29  25  86 CALM      30.46S
MOOSE LAKE     FAIR      27  19  74 CALM      30.42S
HINCKLEY       FAIR      28  27  93 CALM      30.45R
CLOQUET        FAIR      36  19  51 W7        30.42R
MCGREGOR       FAIR      30  23  74 SW3       30.43S
$$
MNZ071>073-080-081-089-090-097-098-201000-
   Southwest Minnesota

CITY           SKY/WX    TMP DP  RH WIND       PRES   REMARKS
MONTEVIDEO     CLOUDY    28  21  74 SW5       30.45S WCI  23
GRANITE FALLS  PTCLDY    29  26  88 S6        30.47S WCI  23
CANBY          PTCLDY    35  17  49 S6        30.44S WCI  30
MARSHALL       PTCLDY    28  23  81 SW8       30.45S WCI  20
REDWOOD FALLS  PTCLDY    25  22  88 CALM      30.46S
OLIVIA         CLOUDY    30  28  93 CALM      30.45S
PIPESTONE      PTCLDY   N/A N/A N/A SE6       30.41F
WINDOM         CLOUDY    23  10  58 CALM      30.45S HAZE
WORTHINGTON    CLOUDY    29  20  69 S5        30.44S WCI  24
JACKSON        CLOUDY    27  19  74 S3        30.45S
TRACY          CLOUDY    29  23  78 S5        30.44S WCI  24
SLAYTON        PTCLDY    24  21  89 SE3       30.44S
$$
MNZ065>067-074>077-082>085-091>093-201000-
   South Central Minnesota

CITY           SKY/WX    TMP DP  RH WIND       PRES   REMARKS
MANKATO        FAIR      25  22  88 SE3       30.48S
NEW ULM        CLOUDY    27  21  80 CALM      30.47R
ST JAMES       CLOUDY    19  18  93 CALM      30.48S
FAIRMONT       CLOUDY    16  14  92 S3        30.47S
GLENCOE        FAIR      26  26 100 CALM      30.47R
OWATONNA       FAIR      27  23  86 CALM      30.47S
WASECA         FAIR      23  19  86 CALM      30.49S
ALBERT LEA       N/A     21  19  93 CALM      30.47S
$$
MNZ078>079-086>088-094>096-201000-
   Southeast Minnesota

CITY           SKY/WX    TMP DP  RH WIND       PRES   REMARKS
ROCHESTER      FAIR      26  20  77 NW5       30.47R WCI  20
RED WING       FAIR      27  19  74 CALM      30.48S
STANTON        FAIR      25  21  84 CALM      30.47R
DODGE CENTER   FAIR      25  21  86 CALM      30.47R
WINONA         FAIR      28  27  93 CALM      30.49R
AUSTIN         FAIR      19  18  93 CALM      30.48R FOG
PRESTON        FAIR      29  21  72 NW3       30.48R
$$
ABBREVIATIONS USED IN REMARKS
   TC - TEMPERATURES IN CELSIUS
  WCI - WIND CHILL INDEX
   HX - HEAT INDEX
  VSB - VISIBILITY
$$



USA.gov is the U.S. government's official web portal to all federal, state and local government web resources and services.